Regional Weather Roundup
Issued by NWS

Home | Current Version | Previous Version | Text Only | Print | Product List | Glossary On
Versions: 1 2 3 4 5 6 7 8 9 10 11 12 13 14 15 16 17 18 19 20 21 22 23 24 25 26 27 28 29 30 31 32 33 34 35 36 37 38 39 40 41 42 43 44 45 46 47 48 49 50
000
ASUS42 KKEY 181210
RWRKEY

FLORIDA REGIONAL WEATHER ROUNDUP FOR THE FLORIDA KEYS
NATIONAL WEATHER SERVICE KEY WEST FLORIDA
800 AM EDT THU SEP 18 2014

...SOUTH FLORIDA AND THE KEYS...

CITY           SKY/WX    TMP DP  RH WIND       PRES   REMARKS
FORT MYERS     LGT RAIN  75  74  96 CALM      29.91S
SW REGIONAL AP MOCLDY    75  70  84 NE3       29.92R
NAPLES         MOCLDY    77  74  90 NE3       29.91R
MIAMI          PTSUNNY   79  71  76 CALM      29.93R
WEST KENDALL   PTSUNNY   77  72  84 CALM      29.93R
HOMESTEAD      PTSUNNY   75  74  94 E1        29.93R
MARATHON       CLOUDY    79  75  87 CALM      29.92R
BOCA CHICA NAS CLOUDY    81  75  82 SW6       29.93R
KEY WEST INTL  CLOUDY    83  74  74 SW5       29.93R

...INTERNATIONAL WEATHER...

CITY           SKY/WX    TMP DP  RH WIND       PRES   REMARKS
NASSAU BAHAMAS NOT AVBL
CANCUN MEXICO  PTCLDY    72  72 100 CALM      29.92R
COZUMEL MEXICO CLEAR     68  68 100 CALM      29.92R

ADJACENT COASTAL WATERS...

STATION/POSITION TIME  SKY/WX   TEMP    WIND        PRES    WAVE
                                AIR SEA DIR/SP/G            HT/PER
                 (UTC)          (F)     (DEG/KT/KT) (MB)    (FT/S)
PULASKI SHOAL LI 1200            83     260/  5/  6 1013.3R
SAND KEY         1136            82     210/  4/  6 1013.5R
SOMBRERO KEY     1200            82     240/  5/  6 1014.1R
LONG KEY         1100            82 85  230/  7/  8 1013.6R
MOLASSES REEF    1200            82 85  260/  2/  3 1013.4R
FOWEY ROCKS      1200            81 85  270/  3/  4 1013.8R
Buoy 42080       NOT AVBL

$$



USA.gov is the U.S. government's official web portal to all federal, state and local government web resources and services.